TimeCST,TemperatureF,Dew PointF,Humidity,Sea Level PressureIn,VisibilityMPH,Wind Direction,Wind SpeedMPH,Gust SpeedMPH,PrecipitationIn,Events,Conditions,WindDirDegrees,DateUTC
12:52 AM,37.9,28.0,68,29.93,10.0,SW,15.0,-,N/A,,Clear,220,2013-01-19 06:52:00
1:52 AM,37.0,28.0,70,29.94,10.0,SW,15.0,-,N/A,,Clear,230,2013-01-19 07:52:00
2:52 AM,37.0,28.0,70,29.94,10.0,SW,12.7,-,N/A,,Clear,220,2013-01-19 08:52:00
3:52 AM,37.0,28.0,70,29.93,10.0,SSW,11.5,-,N/A,,Clear,210,2013-01-19 09:52:00
4:52 AM,36.0,28.0,73,29.91,10.0,SSW,10.4,-,N/A,,Clear,200,2013-01-19 10:52:00
5:52 AM,37.0,28.0,70,29.91,10.0,SSW,12.7,-,N/A,,Partly Cloudy,210,2013-01-19 11:52:00
6:52 AM,37.0,28.0,70,29.89,10.0,SSW,11.5,-,N/A,,Partly Cloudy,200,2013-01-19 12:52:00
7:52 AM,37.0,28.0,70,29.89,10.0,SSW,11.5,-,N/A,,Clear,210,2013-01-19 13:52:00
8:52 AM,37.9,28.9,70,29.89,10.0,SSW,11.5,-,N/A,,Clear,210,2013-01-19 14:52:00
9:52 AM,39.9,28.9,65,29.88,10.0,SSW,15.0,21.9,N/A,,Clear,210,2013-01-19 15:52:00
10:52 AM,44.1,30.9,60,29.86,10.0,SW,17.3,-,N/A,,Clear,220,2013-01-19 16:52:00
11:52 AM,45.0,32.0,60,29.80,10.0,SW,20.7,26.5,N/A,,Clear,220,2013-01-19 17:52:00
12:52 PM,44.1,33.1,65,29.78,10.0,SW,16.1,26.5,N/A,,Mostly Cloudy,230,2013-01-19 18:52:00
1:52 PM,45.0,34.0,65,29.76,10.0,SW,17.3,-,N/A,,Scattered Clouds,230,2013-01-19 19:52:00
3:52 PM,46.0,36.0,68,29.75,10.0,SW,20.7,28.8,N/A,,Clear,230,2013-01-19 21:52:00
4:52 PM,43.0,36.0,76,29.78,10.0,WSW,16.1,-,N/A,,Clear,240,2013-01-19 22:52:00
5:52 PM,42.1,35.1,76,29.78,10.0,WSW,12.7,-,N/A,,Clear,240,2013-01-19 23:52:00
6:52 PM,43.0,33.1,68,29.79,10.0,WSW,15.0,23.0,N/A,,Overcast,250,2013-01-20 00:52:00
7:52 PM,42.1,32.0,67,29.80,10.0,West,21.9,27.6,N/A,,Clear,260,2013-01-20 01:52:00
8:52 PM,39.9,30.9,70,29.81,10.0,West,18.4,27.6,N/A,,Mostly Cloudy,270,2013-01-20 02:52:00
9:52 PM,37.9,26.1,62,29.83,10.0,West,27.6,36.8,N/A,,Clear,280,2013-01-20 03:52:00
10:52 PM,28.0,10.9,49,29.91,10.0,WNW,25.3,40.3,N/A,,Clear,290,2013-01-20 04:52:00
11:52 PM,24.1,10.0,55,29.96,10.0,West,33.4,43.7,N/A,,Clear,280,2013-01-20 05:52:00